Tracking 29892 objects as of 21-Nov-2024
HD Live streaming from Space Station
objects crossing your sky now

STARLINK-1983

Track STARLINK-1983 now!
10-day predictions
STARLINK-1983 is classified as:


NORAD ID: 47630
Int'l Code: 2021-012L
Perigee: 553.6 km
Apogee: 555.0 km
Inclination: 53.1 °
Period: 95.6 minutes
Semi major axis: 6925 km
RCS: Unknown
Launch date: February 16, 2021
Source: United States (US)
Launch site: AIR FORCE EASTERN TEST RANGE (AFETR)
Your satellite tracking list
Your tracking list is empty




NASA's NSSDC Master Catalog

Two Line Element Set (TLE):
1 47630U 21012L   24326.16451506  .00001845  00000-0  14266-3 0  9991
2 47630  53.0536  17.4351 0001030 119.1462 240.9630 15.06410554208378
Source of the keplerian elements: AFSPC